Overview Statistics Trail Chart Weather Telemetry Raw packets
 

This is the latest recevied weather packets stored in our database for station/object W7BTL-13. If no packets are shown the sender has not sent any weather packets the latest 10 day(s).

<< 122 123 124 125 126 127 128 >>
Time Temp. Humidity Pressure Rain* Wind** Luminosity Snow
1787761202 30.56° C 50% 1013.2 hPa - - - -
1787760901 30.56° C 51% 1013.2 hPa - - - -
1787760601 31.11° C 50% 1013.2 hPa - - - -
1787760303 30° C 53% 1013.2 hPa - - - -
1787760002 28.89° C 55% 1013.2 hPa - - - -
1787759702 28.89° C 56% 1013.2 hPa - - - -
1787759402 28.33° C 60% 1013.2 hPa - - - -
1787759103 28.33° C 59% 1013.2 hPa - - - -
1787758802 28.89° C 59% 1013.2 hPa - - - -
1787758502 28.89° C 59% 1013.2 hPa - - - -
1787757902 27.78° C 63% 1013.2 hPa - - - -
1787757602 27.78° C 65% 1013.2 hPa - - - -
1787757301 27.22° C 65% 1013.2 hPa - - - -
1787757001 26.67° C 65% 1013.2 hPa - - - -
1787756702 26.67° C 66% 1013.2 hPa - - - -
1787756401 26.11° C 68% 1013.2 hPa - - - -
1787756103 26.67° C 68% 1013.2 hPa - - - -
1787755801 26.67° C 67% 1013.2 hPa - - - -
1787755502 26.11° C 68% 1013.2 hPa - - - -
1787755202 25.56° C 71% 1013.2 hPa - - - -
1787754901 25° C 74% 1013.2 hPa - - - -
1787754604 24.44° C 75% 1013.2 hPa - - - -
1787754602 24.44° C 75% 1013.2 hPa - - - -
1787754001 23.33° C 79% 1013.2 hPa - - - -
1787753701 22.78° C 82% 1013.2 hPa - - - -

* Rain since midnight (hover to see other rain measurements)
** Current wind speed in m/s (hover to see current wind gust speed)